| time (UTC) | temp C | wind direction | speed KPH | gust KPH | rain 1hr cm | rain 24hr cm | rain mn cm | humidity % | barometer mb |
| 20260504110409 | 8 | 119 | 0.0 | 0.0 | 0.00 | 0.00 | 0.00 | 76 | 1016.1 |
| 20260504100326 | 8 | 46 | 0.0 | 0.0 | 0.00 | 0.00 | 0.00 | 71 | 1016.3 |
| 20260504081720 | 8 | 18 | 0.0 | 0.0 | 0.00 | 0.00 | 0.00 | 70 | 1016.5 |
| 20260504081216 | 8 | 18 | 0.0 | 0.0 | 0.00 | 0.00 | 0.00 | 69 | 1016.8 |
| 20260504080712 | 7 | 29 | 0.0 | 0.0 | 0.00 | 0.00 | 0.00 | 70 | 1016.5 |
| 20260504080209 | 7 | 55 | 0.0 | 0.0 | 0.00 | 0.00 | 0.00 | 70 | 1016.6 |
| 20260504070137 | 8 | 99 | 0.0 | 0.0 | 0.00 | 0.00 | 0.00 | 65 | 1016.7 |
| 20260504050525 | 6 | 86 | 0.0 | 0.0 | 0.00 | 0.00 | 0.00 | 71 | 1016.6 |
| 20260504050022 | 6 | 86 | 0.0 | 0.0 | 0.00 | 0.00 | 0.00 | 70 | 1016.7 |
| 20260504045519 | 6 | 86 | 0.0 | 0.0 | 0.00 | 0.00 | 0.00 | 69 | 1016.7 |
| 20260504045014 | 6 | 83 | 0.0 | 0.0 | 0.00 | 0.00 | 0.00 | 69 | 1016.8 |
| 20260504044512 | 6 | 83 | 0.0 | 0.0 | 0.00 | 0.00 | 0.00 | 68 | 1016.7 |
| 20260504044009 | 6 | 86 | 0.0 | 0.0 | 0.00 | 0.00 | 0.00 | 69 | 1016.8 |
| 20260504043506 | 6 | 86 | 0.0 | 0.0 | 0.00 | 0.00 | 0.00 | 70 | 1017.0 |
| 20260504043004 | 6 | 86 | 0.0 | 0.0 | 0.00 | 0.00 | 0.00 | 68 | 1017.0 |
| 20260504042500 | 6 | 116 | 0.0 | 0.0 | 0.00 | 0.00 | 0.00 | 68 | 1016.7 |
| 20260504041957 | 6 | 114 | 0.0 | 0.0 | 0.00 | 0.00 | 0.00 | 68 | 1016.8 |
| 20260504041453 | 6 | 89 | 0.0 | 0.0 | 0.00 | 0.00 | 0.00 | 69 | 1016.7 |
| 20260504040949 | 6 | 83 | 0.0 | 0.0 | 0.00 | 0.00 | 0.00 | 71 | 1016.8 |
| 20260504040447 | 6 | 83 | 0.0 | 0.0 | 0.00 | 0.00 | 0.00 | 73 | 1016.8 |
| 20260504035943 | 5 | 74 | 0.0 | 0.0 | 0.00 | 0.00 | 0.00 | 76 | 1016.7 |
| 20260504035441 | 5 | 79 | 0.0 | 0.0 | 0.00 | 0.00 | 0.00 | 77 | 1016.8 |
| 20260504034937 | 5 | 113 | 0.0 | 0.0 | 0.00 | 0.00 | 0.00 | 77 | 1016.7 |
| 20260504034434 | 5 | 31 | 0.0 | 0.0 | 0.00 | 0.00 | 0.00 | 78 | 1016.6 |
| 20260504033931 | 5 | 40 | 0.0 | 0.0 | 0.00 | 0.00 | 0.00 | 79 | 1016.5 |
| 20260504033429 | 5 | 55 | 0.0 | 0.0 | 0.00 | 0.00 | 0.00 | 80 | 1016.4 |
| 20260504032926 | 5 | 59 | 0.0 | 0.0 | 0.00 | 0.00 | 0.00 | 80 | 1016.5 |
| 20260504032423 | 5 | 68 | 0.0 | 0.0 | 0.00 | 0.00 | 0.00 | 78 | 1016.4 |
| 20260504031919 | 5 | 68 | 0.0 | 0.0 | 0.00 | 0.00 | 0.00 | 78 | 1016.4 |
| 20260504031417 | 5 | 69 | 0.0 | 0.0 | 0.00 | 0.00 | 0.00 | 78 | 1016.4 |
| 20260504030913 | 5 | 82 | 0.0 | 0.0 | 0.00 | 0.00 | 0.00 | 77 | 1016.3 |
| 20260504030410 | 5 | 80 | 0.0 | 0.0 | 0.00 | 0.00 | 0.00 | 77 | 1016.1 |
| 20260504025906 | 6 | 11 | 0.0 | 1.6 | 0.00 | 0.00 | 0.00 | 77 | 1016.1 |
| 20260504025403 | 5 | 23 | 0.0 | 0.0 | 0.00 | 0.00 | 0.00 | 77 | 1016.3 |
| 20260504024900 | 6 | 75 | 0.0 | 0.0 | 0.00 | 0.00 | 0.00 | 77 | 1016.2 |
| 20260504024356 | 6 | 97 | 0.0 | 0.0 | 0.00 | 0.00 | 0.00 | 76 | 1016.2 |
| 20260504023854 | 6 | 46 | 0.0 | 0.0 | 0.00 | 0.00 | 0.00 | 76 | 1016.3 |
| 20260504023350 | 6 | 48 | 0.0 | 0.0 | 0.00 | 0.00 | 0.00 | 75 | 1016.3 |
| 20260504022845 | 6 | 51 | 0.0 | 0.0 | 0.00 | 0.00 | 0.00 | 74 | 1016.2 |
| 20260504022343 | 6 | 51 | 0.0 | 0.0 | 0.00 | 0.00 | 0.00 | 73 | 1016.2 |
| 20260504021839 | 6 | 51 | 0.0 | 0.0 | 0.00 | 0.00 | 0.00 | 73 | 1016.1 |
| 20260504021337 | 6 | 58 | 0.0 | 0.0 | 0.00 | 0.00 | 0.00 | 73 | 1016.3 |
| 20260504020833 | 6 | 60 | 0.0 | 0.0 | 0.00 | 0.00 | 0.00 | 72 | 1016.3 |
| 20260504020330 | 6 | 61 | 0.0 | 0.0 | 0.00 | 0.00 | 0.00 | 70 | 1016.1 |
| 20260504015826 | 6 | 61 | 0.0 | 0.0 | 0.00 | 0.00 | 0.00 | 70 | 1016.2 |
| 20260504015322 | 7 | 47 | 0.0 | 0.0 | 0.00 | 0.00 | 0.00 | 70 | 1016.1 |
| 20260504014819 | 7 | 47 | 0.0 | 0.0 | 0.00 | 0.00 | 0.00 | 69 | 1016.1 |
| 20260504014315 | 7 | 47 | 0.0 | 0.0 | 0.00 | 0.00 | 0.00 | 68 | 1016.2 |
| 20260504013813 | 7 | 48 | 0.0 | 0.0 | 0.00 | 0.00 | 0.00 | 68 | 1016.1 |
| 20260504013310 | 7 | 56 | 0.0 | 0.0 | 0.00 | 0.00 | 0.00 | 66 | 1016.0 |
| 20260504012807 | 7 | 57 | 0.0 | 0.0 | 0.00 | 0.00 | 0.00 | 65 | 1016.1 |
| 20260504012305 | 7 | 57 | 0.0 | 0.0 | 0.00 | 0.00 | 0.00 | 65 | 1016.0 |
| 20260504011802 | 7 | 57 | 0.0 | 0.0 | 0.00 | 0.00 | 0.00 | 65 | 1015.8 |
| 20260504011258 | 8 | 57 | 0.0 | 0.0 | 0.00 | 0.00 | 0.00 | 64 | 1015.7 |
| 20260504010754 | 8 | 58 | 0.0 | 0.0 | 0.00 | 0.00 | 0.00 | 62 | 1015.8 |
| 20260504010250 | 8 | 58 | 0.0 | 0.0 | 0.00 | 0.00 | 0.00 | 60 | 1015.7 |
| 20260504005747 | 8 | 58 | 0.0 | 0.0 | 0.00 | 0.00 | 0.00 | 59 | 1015.9 |
| 20260504005244 | 8 | 58 | 0.0 | 0.0 | 0.00 | 0.00 | 0.00 | 60 | 1015.7 |
| 20260504004741 | 8 | 58 | 0.0 | 0.0 | 0.00 | 0.00 | 0.00 | 58 | 1015.7 |
| 20260504004239 | 9 | 60 | 0.0 | 0.0 | 0.00 | 0.00 | 0.00 | 57 | 1015.6 |
| 20260504003735 | 9 | 60 | 0.0 | 0.0 | 0.00 | 0.00 | 0.00 | 55 | 1015.6 |
| 20260504003232 | 10 | 60 | 0.0 | 0.0 | 0.00 | 0.00 | 0.00 | 53 | 1015.8 |
| 20260504002728 | 10 | 60 | 0.0 | 0.0 | 0.00 | 0.00 | 0.00 | 52 | 1015.7 |
| 20260504002225 | 10 | 61 | 0.0 | 0.0 | 0.00 | 0.00 | 0.00 | 51 | 1015.4 |
| 20260504001723 | 11 | 68 | 0.0 | 0.0 | 0.00 | 0.00 | 0.00 | 49 | 1015.3 |
| 20260504001220 | 11 | 69 | 0.0 | 0.0 | 0.00 | 0.00 | 0.00 | 47 | 1015.4 |
| 20260504000717 | 11 | 69 | 0.0 | 0.0 | 0.00 | 0.00 | 0.00 | 45 | 1015.3 |
| 20260504000214 | 12 | 69 | 0.0 | 0.0 | 0.00 | 0.00 | 0.00 | 47 | 1015.1 |
| 20260503235712 | 12 | 72 | 0.0 | 0.0 | 0.00 | 0.00 | 0.00 | 42 | 1015.4 |
| 20260503235209 | 13 | 26 | 0.0 | 0.0 | 0.00 | 0.00 | 0.00 | 40 | 1015.3 |
| 20260503234706 | 13 | 27 | 0.0 | 0.0 | 0.00 | 0.00 | 0.00 | 38 | 1015.2 |
| 20260503234205 | 13 | 26 | 0.0 | 0.0 | 0.00 | 0.00 | 0.00 | 37 | 1015.2 |
| 20260503233701 | 13 | 26 | 0.0 | 0.0 | 0.00 | 0.00 | 0.00 | 36 | 1015.3 |
| 20260503233157 | 13 | 78 | 0.0 | 0.0 | 0.00 | 0.00 | 0.00 | 37 | 1014.8 |
| 20260503232654 | 14 | 101 | 0.0 | 0.0 | 0.00 | 0.00 | 0.00 | 38 | 1015.1 |
| 20260503232151 | 14 | 7 | 0.0 | 0.0 | 0.00 | 0.00 | 0.00 | 39 | 1015.0 |
| 20260503231649 | 14 | 102 | 0.0 | 0.0 | 0.00 | 0.00 | 0.00 | 37 | 1015.0 |
| 20260503231145 | 15 | 126 | 0.0 | 0.0 | 0.00 | 0.00 | 0.00 | 38 | 1014.7 |
| 20260503230642 | 15 | 83 | 0.0 | 0.0 | 0.00 | 0.00 | 0.00 | 36 | 1014.9 |
| 20260503230139 | 15 | 63 | 0.0 | 0.0 | 0.00 | 0.00 | 0.00 | 34 | 1014.8 |
| 20260503225637 | 15 | 344 | 1.6 | 1.6 | 0.00 | 0.00 | 0.00 | 33 | 1015.0 |
| 20260503225136 | 15 | 8 | 0.0 | 1.6 | 0.00 | 0.00 | 0.00 | 36 | 1014.9 |
| 20260503224634 | 15 | 280 | 1.6 | 1.6 | 0.00 | 0.00 | 0.00 | 34 | 1015.0 |
| 20260503224132 | 15 | 340 | 1.6 | 1.6 | 0.00 | 0.00 | 0.00 | 33 | 1014.9 |
| 20260503223630 | 15 | 359 | 0.0 | 1.6 | 0.00 | 0.00 | 0.00 | 33 | 1014.9 |
| 20260503223125 | 15 | 124 | 0.0 | 0.0 | 0.00 | 0.00 | 0.00 | 33 | 1015.1 |
| 20260503222623 | 16 | 307 | 0.0 | 1.6 | 0.00 | 0.00 | 0.00 | 31 | 1015.1 |
| 20260503222121 | 16 | 327 | 0.0 | 0.0 | 0.00 | 0.00 | 0.00 | 31 | 1014.9 |
| 20260503221619 | 16 | 75 | 1.6 | 1.6 | 0.00 | 0.00 | 0.00 | 31 | 1014.7 |
| 20260503221116 | 16 | 249 | 1.6 | 1.6 | 0.00 | 0.00 | 0.00 | 30 | 1015.0 |
| 20260503220613 | 16 | 254 | 1.6 | 3.2 | 0.00 | 0.00 | 0.00 | 32 | 1014.9 |
| 20260503220109 | 16 | 264 | 1.6 | 3.2 | 0.00 | 0.00 | 0.00 | 30 | 1015.1 |
| 20260503215606 | 16 | 307 | 3.2 | 3.2 | 0.00 | 0.00 | 0.00 | 32 | 1014.9 |
| 20260503215103 | 16 | 334 | 1.6 | 3.2 | 0.00 | 0.00 | 0.00 | 30 | 1015.0 |
| 20260503214601 | 16 | 334 | 1.6 | 1.6 | 0.00 | 0.00 | 0.00 | 31 | 1015.2 |
| 20260503214057 | 16 | 179 | 3.2 | 3.2 | 0.00 | 0.00 | 0.00 | 33 | 1015.2 |
| 20260503213556 | 16 | 300 | 1.6 | 3.2 | 0.00 | 0.00 | 0.00 | 31 | 1014.9 |
| 20260503213052 | 16 | 343 | 1.6 | 3.2 | 0.00 | 0.00 | 0.00 | 31 | 1015.0 |
| 20260503212550 | 16 | 304 | 3.2 | 4.8 | 0.00 | 0.00 | 0.00 | 33 | 1014.9 |
| 20260503212047 | 16 | 190 | 3.2 | 4.8 | 0.00 | 0.00 | 0.00 | 31 | 1014.9 |
| 20260503211544 | 16 | 329 | 3.2 | 4.8 | 0.00 | 0.00 | 0.00 | 31 | 1015.1 |
| 20260503211039 | 16 | 313 | 0.0 | 0.0 | 0.00 | 0.00 | 0.00 | 32 | 1015.0 |
| 20260503210537 | 16 | 229 | 1.6 | 3.2 | 0.00 | 0.00 | 0.00 | 32 | 1014.9 |
| 20260503210032 | 16 | 218 | 3.2 | 3.2 | 0.00 | 0.00 | 0.00 | 31 | 1015.0 |
| 20260503205529 | 17 | 35 | 1.6 | 1.6 | 0.00 | 0.00 | 0.00 | 29 | 1014.9 |
| 20260503205026 | 17 | 128 | 0.0 | 1.6 | 0.00 | 0.00 | 0.00 | 32 | 1015.0 |
| 20260503204523 | 17 | 279 | 1.6 | 3.2 | 0.00 | 0.00 | 0.00 | 30 | 1015.0 |
| 20260503204020 | 17 | 263 | 1.6 | 3.2 | 0.00 | 0.00 | 0.00 | 31 | 1015.2 |
| 20260503203517 | 17 | 353 | 3.2 | 4.8 | 0.00 | 0.00 | 0.00 | 31 | 1015.3 |
| 20260503203014 | 16 | 305 | 3.2 | 3.2 | 0.00 | 0.00 | 0.00 | 31 | 1015.3 |
| 20260503202512 | 16 | 154 | 3.2 | 3.2 | 0.00 | 0.00 | 0.00 | 35 | 1015.3 |
| 20260503202010 | 16 | 288 | 1.6 | 3.2 | 0.00 | 0.00 | 0.00 | 35 | 1015.5 |
| 20260503201508 | 16 | 277 | 1.6 | 3.2 | 0.00 | 0.00 | 0.00 | 33 | 1015.3 |
| 20260503201004 | 15 | 177 | 1.6 | 1.6 | 0.00 | 0.00 | 0.00 | 34 | 1015.4 |
| 20260503200500 | 16 | 318 | 1.6 | 1.6 | 0.00 | 0.00 | 0.00 | 34 | 1015.5 |
| 20260503195957 | 16 | 179 | 0.0 | 1.6 | 0.00 | 0.00 | 0.00 | 32 | 1015.5 |
| 20260503195455 | 16 | 306 | 1.6 | 3.2 | 0.00 | 0.00 | 0.00 | 32 | 1015.5 |
| 20260503194951 | 17 | 284 | 0.0 | 3.2 | 0.00 | 0.00 | 0.00 | 32 | 1015.8 |
| 20260503194449 | 17 | 298 | 1.6 | 1.6 | 0.00 | 0.00 | 0.00 | 33 | 1015.7 |
| 20260503193943 | 17 | 304 | 3.2 | 3.2 | 0.00 | 0.00 | 0.00 | 34 | 1015.8 |
| 20260503193439 | 17 | 239 | 6.4 | 9.7 | 0.00 | 0.00 | 0.00 | 34 | 1015.9 |
| 20260503192935 | 16 | 161 | 3.2 | 3.2 | 0.00 | 0.00 | 0.00 | 34 | 1015.8 |
| 20260503192432 | 16 | 346 | 3.2 | 3.2 | 0.00 | 0.00 | 0.00 | 34 | 1016.1 |
| 20260503191927 | 17 | 338 | 6.4 | 9.7 | 0.00 | 0.00 | 0.00 | 32 | 1016.2 |
| 20260503191425 | 17 | 316 | 8.0 | 11.3 | 0.00 | 0.00 | 0.00 | 32 | 1016.2 |
| 20260503190921 | 17 | 244 | 3.2 | 3.2 | 0.00 | 0.00 | 0.00 | 32 | 1016.3 |
| 20260503190419 | 16 | 336 | 4.8 | 6.4 | 0.00 | 0.00 | 0.00 | 33 | 1016.3 |
| 20260503185915 | 16 | 326 | 3.2 | 4.8 | 0.00 | 0.00 | 0.00 | 32 | 1016.4 |
| 20260503185412 | 16 | 332 | 1.6 | 1.6 | 0.00 | 0.00 | 0.00 | 33 | 1016.2 |
| 20260503184911 | 16 | 308 | 3.2 | 4.8 | 0.00 | 0.00 | 0.00 | 33 | 1016.3 |
| 20260503184408 | 16 | 298 | 4.8 | 4.8 | 0.00 | 0.00 | 0.00 | 33 | 1016.4 |
| 20260503183904 | 16 | 286 | 4.8 | 4.8 | 0.00 | 0.00 | 0.00 | 33 | 1016.5 |
| 20260503183401 | 16 | 272 | 3.2 | 3.2 | 0.00 | 0.00 | 0.00 | 35 | 1016.5 |
| 20260503182858 | 16 | 331 | 4.8 | 4.8 | 0.00 | 0.00 | 0.00 | 31 | 1016.9 |
| 20260503182357 | 16 | 354 | 4.8 | 4.8 | 0.00 | 0.00 | 0.00 | 32 | 1016.9 |
| 20260503181853 | 15 | 29 | 3.2 | 3.2 | 0.00 | 0.00 | 0.00 | 36 | 1016.7 |
| 20260503181351 | 15 | 227 | 4.8 | 4.8 | 0.00 | 0.00 | 0.00 | 34 | 1016.8 |
| 20260503180847 | 15 | 289 | 1.6 | 3.2 | 0.00 | 0.00 | 0.00 | 34 | 1016.8 |
| 20260503180345 | 15 | 9 | 1.6 | 3.2 | 0.00 | 0.00 | 0.00 | 35 | 1016.7 |
| 20260503175841 | 15 | 308 | 3.2 | 4.8 | 0.00 | 0.00 | 0.00 | 35 | 1016.6 |
| 20260503175339 | 15 | 299 | 1.6 | 1.6 | 0.00 | 0.00 | 0.00 | 37 | 1017.0 |
| 20260503174835 | 15 | 284 | 1.6 | 1.6 | 0.00 | 0.00 | 0.00 | 37 | 1017.1 |
| 20260503174334 | 15 | 265 | 3.2 | 4.8 | 0.00 | 0.00 | 0.00 | 36 | 1016.9 |
| 20260503173834 | 16 | 323 | 6.4 | 9.7 | 0.00 | 0.00 | 0.00 | 34 | 1017.1 |
| 20260503173330 | 15 | 356 | 1.6 | 1.6 | 0.00 | 0.00 | 0.00 | 35 | 1016.9 |
| 20260503172827 | 15 | 346 | 3.2 | 6.4 | 0.00 | 0.00 | 0.00 | 34 | 1017.0 |
| 20260503172325 | 15 | 271 | 3.2 | 4.8 | 0.00 | 0.00 | 0.00 | 36 | 1016.9 |
| 20260503171820 | 15 | 326 | 6.4 | 9.7 | 0.00 | 0.00 | 0.00 | 36 | 1017.1 |
| 20260503171318 | 15 | 230 | 4.8 | 4.8 | 0.00 | 0.00 | 0.00 | 39 | 1017.1 |
| 20260503170815 | 14 | 324 | 1.6 | 1.6 | 0.00 | 0.00 | 0.00 | 40 | 1017.1 |
| 20260503170311 | 15 | 355 | 3.2 | 4.8 | 0.00 | 0.00 | 0.00 | 35 | 1017.1 |
| 20260503150704 | 12 | 322 | 1.6 | 3.2 | 0.00 | 0.00 | 0.00 | 38 | 1017.8 |
| 20260503150200 | 13 | 294 | 3.2 | 3.2 | 0.00 | 0.00 | 0.00 | 35 | 1017.9 |
| 20260503140124 | 11 | 43 | 1.6 | 3.2 | 0.00 | 0.00 | 0.00 | 42 | 1017.9 |
| 20260503131053 | 10 | 323 | 3.2 | 3.2 | 0.00 | 0.00 | 0.00 | 48 | 1018.2 |
| 20260503130550 | 10 | 307 | 1.6 | 3.2 | 0.00 | 0.00 | 0.00 | 50 | 1018.3 |